Location: Unspecified
(0.0000°N, 0.0000°E)
Time: 07:37:41
(UTC+00:00)

Vanguard 2 - Pass Details

Date: 18 December 2018
Orbit: 553 x 2939 km, 32.9° (Epoch: 18 March)

Event Time Altitude Azimuth Distance (km) Brightness Sun altitude
Rises 11:41:20 0° 218° (SW) 5,790 12.2 66.3°
Reaches altitude 10° 11:47:31 10° 201° (SSW) 4,253 11.8 66.5°
Maximum altitude 11:53:55 17° 165° (SSE) 3,095 11.3 66.6°
Drops below altitude 10° 11:58:47 10° 126° (SE) 3,108 11.0 66.6°
Sets 12:02:14 0° 105° (ESE) 3,699 11.1 66.6°
